• In Romania
  • List of Countries
  • For 7 days
  • Water Temperature
  • Satellite Maps
  • Weather Map
  • Weather Widgets
  • user-avatar
    Login

    Hourly Weather Mosyagino

    Today, 23 April, Monday

    Time Temperature Precipitation Wind Pressure Humidity
    00:00 -2°C° 0 mm 2 mps 739 mmHg 80%
    01:00 -3°C° 0 mm 2 mps 739 mmHg 81%
    02:00 -3°C° 0 mm 2 mps 740 mmHg 83%
    03:00 -3°C° 0 mm 2 mps 740 mmHg 82%
    04:00 -3°C° 0 mm 2 mps 740 mmHg 81%
    05:00 -3°C° 0 mm 2 mps 741 mmHg 80%
    06:00 -2°C° 0 mm 2 mps 741 mmHg 70%
    07:00 +1°C° 0 mm 2 mps 741 mmHg 60%
    08:00 +1°C° 0 mm 3 mps 742 mmHg 49%
    09:00 +4°C° 0 mm 2 mps 741 mmHg 45%
    10:00 +5°C° 0 mm 2 mps 741 mmHg 40%
    11:00 +6°C° 0 mm 2 mps 741 mmHg 36%
    12:00 +7°C° 0 mm 2 mps 741 mmHg 35%
    13:00 +7°C° 0 mm 2 mps 741 mmHg 35%
    14:00 +8°C° 0 mm 2 mps 741 mmHg 34%
    15:00 +8°C° 0 mm 2 mps 741 mmHg 36%
    16:00 +7°C° 0 mm 2 mps 740 mmHg 38%
    17:00 +7°C° 0 mm 2 mps 740 mmHg 40%
    18:00 +6°C° 0 mm 1 mps 740 mmHg 47%
    19:00 +4°C° 0 mm 1 mps 740 mmHg 54%
    20:00 +1°C° 0 mm 0 mps 740 mmHg 61%
    21:00 +2°C° 0 mm 1 mps 740 mmHg 63%
    22:00 +2°C° 0 mm 1 mps 740 mmHg 64%
    23:00 +1°C° 0 mm 1 mps 740 mmHg 66%

    Tomorrow, 24 April, Tuesday

    Time Temperature Precipitation Wind Pressure Humidity
    00:00 +1°C° 0 mm 1 mps 740 mmHg 67%
    01:00 +1°C° 0 mm 1 mps 740 mmHg 68%
    02:00 0°C° 0 mm 1 mps 740 mmHg 69%
    03:00 +1°C° 0 mm 1 mps 739 mmHg 68%
    04:00 -1°C° 0 mm 2 mps 739 mmHg 68%
    05:00 -1°C° 0 mm 2 mps 739 mmHg 67%
    06:00 +2°C° 0 mm 2 mps 739 mmHg 62%
    07:00 +4°C° 0 mm 2 mps 738 mmHg 56%
    08:00 +6°C° 0 mm 2 mps 738 mmHg 51%
    09:00 +7°C° 0.1 mm 3 mps 738 mmHg 51%
    10:00 +8°C° 0.1 mm 3 mps 737 mmHg 51%
    11:00 +9°C° 0.1 mm 3 mps 737 mmHg 52%
    12:00 +8°C° 0.1 mm 4 mps 736 mmHg 52%
    13:00 +10°C° 0.1 mm 4 mps 736 mmHg 53%
    14:00 +11°C° 0.1 mm 4 mps 735 mmHg 53%
    15:00 +10°C° 0.4 mm 3 mps 735 mmHg 62%
    16:00 +9°C° 0.4 mm 3 mps 735 mmHg 70%
    17:00 +8°C° 0.4 mm 2 mps 734 mmHg 79%
    18:00 +7°C° 0.2 mm 2 mps 734 mmHg 83%
    19:00 +7°C° 0.2 mm 2 mps 734 mmHg 88%
    20:00 +6°C° 0.2 mm 2 mps 734 mmHg 92%
    21:00 +6°C° 0 mm 2 mps 734 mmHg 94%
    22:00 +6°C° 0 mm 2 mps 733 mmHg 95%
    23:00 +5°C° 0 mm 2 mps 733 mmHg 97%

    Day after tomorrow, 25 April, Wednesday

    Time Temperature Precipitation Wind Pressure Humidity
    00:00 +5°C° 0 mm 2 mps 733 mmHg 97%
    01:00 +5°C° 0 mm 2 mps 733 mmHg 97%
    02:00 +6°C° 0 mm 1 mps 733 mmHg 98%
    03:00 +5°C° 0 mm 2 mps 733 mmHg 98%
    04:00 +5°C° 0 mm 2 mps 733 mmHg 98%
    05:00 +5°C° 0 mm 2 mps 733 mmHg 98%
    06:00 +6°C° 0 mm 2 mps 733 mmHg 93%
    07:00 +7°C° 0 mm 3 mps 733 mmHg 88%
    08:00 +8°C° 0 mm 3 mps 733 mmHg 84%
    09:00 +8°C° 0 mm 3 mps 732 mmHg 83%
    10:00 +8°C° 0 mm 4 mps 732 mmHg 82%
    11:00 +8°C° 0 mm 4 mps 732 mmHg 82%
    12:00 +8°C° 0.1 mm 4 mps 732 mmHg 81%
    13:00 +8°C° 0.1 mm 4 mps 731 mmHg 80%
    14:00 +10°C° 0.1 mm 4 mps 731 mmHg 79%
    15:00 +9°C° 0.2 mm 5 mps 731 mmHg 75%
    16:00 +9°C° 0.2 mm 5 mps 731 mmHg 71%
    17:00 +9°C° 0.2 mm 5 mps 731 mmHg 67%
    18:00 +7°C° 0 mm 4 mps 731 mmHg 73%
    19:00 +7°C° 0 mm 3 mps 732 mmHg 79%
    20:00 +5°C° 0 mm 2 mps 732 mmHg 85%
    21:00 +5°C° 0 mm 2 mps 732 mmHg 86%
    22:00 +5°C° 0 mm 2 mps 732 mmHg 87%
    23:00 +4°C° 0 mm 2 mps 732 mmHg 88%

    26 April, Thursday

    Time Temperature Precipitation Wind Pressure Humidity
    00:00 +4°C° 0 mm 2 mps 731 mmHg 89%
    01:00 +4°C° 0 mm 2 mps 731 mmHg 90%
    02:00 +3°C° 0 mm 2 mps 731 mmHg 91%
    03:00 +3°C° 0 mm 2 mps 731 mmHg 92%
    04:00 +3°C° 0 mm 2 mps 731 mmHg 93%
    05:00 +3°C° 0 mm 2 mps 731 mmHg 93%
    06:00 +4°C° 0 mm 2 mps 731 mmHg 85%
    07:00 +5°C° 0 mm 3 mps 731 mmHg 77%
    08:00 +7°C° 0 mm 4 mps 731 mmHg 68%
    09:00 +8°C° 0.1 mm 4 mps 731 mmHg 64%
    10:00 +9°C° 0.1 mm 5 mps 732 mmHg 59%
    11:00 +10°C° 0.1 mm 5 mps 732 mmHg 55%
    12:00 +12°C° 0.2 mm 5 mps 732 mmHg 52%
    13:00 +12°C° 0.2 mm 5 mps 732 mmHg 50%
    14:00 +12°C° 0.2 mm 5 mps 732 mmHg 48%
    15:00 +12°C° 0.2 mm 4 mps 732 mmHg 52%
    16:00 +11°C° 0.2 mm 4 mps 733 mmHg 55%
    17:00 +11°C° 0.2 mm 4 mps 733 mmHg 59%
    18:00 +9°C° 0.1 mm 3 mps 733 mmHg 66%
    19:00 +8°C° 0.1 mm 3 mps 734 mmHg 73%
    20:00 +7°C° 0.1 mm 2 mps 734 mmHg 80%
    21:00 +6°C° 0 mm 2 mps 734 mmHg 80%
    22:00 +5°C° 0 mm 3 mps 734 mmHg 81%
    23:00 +5°C° 0 mm 3 mps 735 mmHg 81%

    27 April, Friday

    Time Temperature Precipitation Wind Pressure Humidity
    00:00 +4°C° 0 mm 3 mps 735 mmHg 83%
    01:00 +4°C° 0 mm 3 mps 735 mmHg 85%
    02:00 +4°C° 0 mm 3 mps 736 mmHg 87%
    03:00 +3°C° 0 mm 3 mps 736 mmHg 88%
    04:00 +3°C° 0 mm 3 mps 736 mmHg 89%
    05:00 +3°C° 0 mm 3 mps 737 mmHg 90%
    06:00 +4°C° 0 mm 3 mps 737 mmHg 82%
    07:00 +7°C° 0 mm 3 mps 737 mmHg 74%
    08:00 +8°C° 0 mm 4 mps 738 mmHg 65%
    09:00 +10°C° 0 mm 4 mps 738 mmHg 58%
    10:00 +11°C° 0 mm 3 mps 738 mmHg 50%
    11:00 +13°C° 0 mm 3 mps 738 mmHg 42%
    12:00 +13°C° 0 mm 3 mps 737 mmHg 40%
    13:00 +14°C° 0 mm 3 mps 737 mmHg 38%
    14:00 +15°C° 0 mm 4 mps 737 mmHg 36%
    15:00 +14°C° 0.3 mm 3 mps 736 mmHg 45%
    16:00 +14°C° 0.3 mm 2 mps 736 mmHg 53%
    17:00 +13°C° 0.3 mm 2 mps 735 mmHg 62%
    18:00 +10°C° 1.3 mm 2 mps 735 mmHg 71%
    19:00 +9°C° 1.3 mm 2 mps 735 mmHg 80%
    20:00 +8°C° 1.3 mm 3 mps 735 mmHg 90%
    21:00 +7°C° 0.1 mm 3 mps 735 mmHg 89%
    22:00 +5°C° 0.1 mm 4 mps 735 mmHg 89%
    23:00 +5°C° 0.1 mm 4 mps 735 mmHg 88%

    28 April, Saturday

    Time Temperature Precipitation Wind Pressure Humidity
    00:00 +5°C° 0.1 mm 5 mps 735 mmHg 88%
    01:00 +5°C° 0.1 mm 5 mps 735 mmHg 87%
    02:00 +5°C° 0.1 mm 5 mps 736 mmHg 86%
    03:00 +3°C° 0.1 mm 5 mps 736 mmHg 86%
    04:00 +3°C° 0.1 mm 6 mps 736 mmHg 86%
    05:00 +3°C° 0.1 mm 6 mps 737 mmHg 85%
    06:00 +3°C° 0.1 mm 6 mps 737 mmHg 84%
    07:00 +3°C° 0.1 mm 6 mps 738 mmHg 82%
    08:00 +3°C° 0.1 mm 6 mps 738 mmHg 81%
    09:00 +4°C° 0 mm 6 mps 739 mmHg 76%
    10:00 +5°C° 0 mm 6 mps 739 mmHg 72%
    11:00 +7°C° 0 mm 6 mps 740 mmHg 67%
    12:00 +8°C° 0.1 mm 5 mps 740 mmHg 62%
    13:00 +9°C° 0.1 mm 5 mps 741 mmHg 58%
    14:00 +10°C° 0.1 mm 5 mps 741 mmHg 53%
    15:00 +10°C° 0.1 mm 5 mps 741 mmHg 54%
    16:00 +10°C° 0.1 mm 4 mps 741 mmHg 56%
    17:00 +10°C° 0.1 mm 3 mps 741 mmHg 58%
    18:00 +9°C° 0 mm 3 mps 742 mmHg 65%
    19:00 +7°C° 0 mm 2 mps 742 mmHg 73%
    20:00 +6°C° 0 mm 1 mps 742 mmHg 81%
    21:00 +6°C° 0 mm 1 mps 742 mmHg 83%
    22:00 +6°C° 0 mm 1 mps 743 mmHg 85%
    23:00 +5°C° 0 mm 1 mps 743 mmHg 87%
    Show more